Location: Lafig�re
(44.4503°N, 4.0357°E)
Time: 16:32:45
(UTC+00:00)

S-56A Canister/Altair - Pass Details

Date: 29 January 2021
Orbit: 631 x 2501 km, 38.9° (Epoch: 04 March)

Event Time Altitude Azimuth Distance (km) Brightness Sun altitude
Rises 23:45:51 0° 226° (SW) 3,837 - -63.1°
Reaches altitude 10° 23:49:19 10° 215° (SW) 2,604 - -63.2°
Maximum altitude 23:54:03 25° 161° (SSE) 1,483 - -63.2°
Drops below altitude 10° 23:57:55 10° 105° (ESE) 2,096 - -63.2°
Sets 00:00:23 0° 91° (E) 2,939 - -63.2°
